Location: West Cummington
(42.4920°N, 72.9680°W)
Time: 20:10:08
(UTC-04:00)

ATLAS 2AS CENTAUR R/B - Visible Passes

Search period start: 28 May 2017 00:00
Search period end: 07 June 2017 00:00
Orbit: 905 x 1307 km, 63.7° (Epoch: 27 May)

Date Brightness Start Highest point End Pass type
(mag) Time Alt. Az. Time Alt. Az. Time Alt. Az.
28 May 3.9 00:41:50 10° NNW 00:49:34 45° NE 00:56:32 11° ESE visible
28 May 3.1 02:33:06 10° NW 02:40:43 50° WSW 02:43:52 32° S visible
28 May 5.3 22:05:31 10° NNW 22:10:28 17° N 22:15:20 10° NE visible
28 May 4.4 23:57:03 10° NNW 00:04:17 34° NE 00:11:08 10° E visible
29 May 2.9 01:48:03 10° NW 01:56:04 75° WSW 01:59:25 37° SSE visible
29 May 4.4 03:41:45 10° WNW 03:45:39 15° WSW 03:46:46 14° WSW visible
29 May 5.3 21:19:57 10° NNW 21:24:37 16° N 21:29:15 10° NE visible
29 May 4.8 23:12:14 10° NNW 23:18:50 26° NNE 23:25:11 10° E visible
30 May 3.0 01:03:08 10° NW 01:11:14 77° NE 01:15:09 32° SE visible
30 May 3.9 02:55:23 10° WNW 03:01:24 25° WSW 03:02:30 24° WSW visible
30 May 5.1 22:27:20 10° NNW 22:33:15 21° NNE 22:38:59 10° ENE visible
31 May 3.5 00:18:18 10° NNW 00:26:14 55° NE 00:31:01 23° ESE visible
31 May 3.4 02:09:50 10° NW 02:17:01 39° WSW 02:18:24 36° SW visible
31 May 5.2 21:42:16 10° NNW 21:47:32 18° NNE 21:52:41 10° NE visible
31 May 4.0 23:33:32 10° NNW 23:41:04 40° NE 23:46:59 15° ESE visible
01 Jun 3.0 01:24:39 10° NW 01:32:29 59° WSW 01:34:23 47° SSW visible
01 Jun 5.2 20:56:56 10° NNW 21:01:43 16° N 21:06:28 10° NE visible
01 Jun 4.5 22:48:44 10° NNW 22:55:43 30° NNE 23:02:22 10° E visible
02 Jun 2.9 00:39:40 10° NW 00:47:45 86° WSW 00:50:27 45° SSE visible
02 Jun 4.3 02:32:37 10° WNW 02:37:35 18° WSW 02:37:51 18° WSW visible
02 Jun 4.8 22:03:54 10° NNW 22:10:13 24° NNE 22:16:19 10° ENE visible
02 Jun 3.2 23:54:48 10° NNW 00:02:52 67° NE 00:06:36 33° ESE visible
03 Jun 3.8 01:46:42 10° NW 01:53:17 30° WSW 01:54:00 29° WSW visible
03 Jun 5.0 21:18:56 10° NNW 21:24:34 20° NNE 21:30:03 10° ENE visible
03 Jun 3.7 23:10:00 10° NNW 23:17:47 48° NE 23:22:48 21° ESE visible
04 Jun 3.3 01:01:20 10° NW 01:08:49 46° WSW 01:10:12 42° SW visible
04 Jun 4.2 22:25:13 10° NNW 22:32:32 35° NE 22:39:04 12° E visible
05 Jun 3.0 00:16:14 10° NW 00:24:13 70° WSW 00:26:28 48° S visible
05 Jun 4.7 02:10:25 10° WNW 02:13:41 13° W 02:13:53 13° WSW visible
05 Jun 4.6 21:40:24 10° NNW 21:47:08 27° NNE 21:53:33 10° E visible
05 Jun 3.0 23:31:19 10° NW 23:39:25 82° NE 23:42:48 38° SE visible
06 Jun 4.2 01:23:44 10° WNW 01:29:29 23° WSW 01:30:12 22° WSW visible
06 Jun 4.8 20:55:32 10° NNW 21:01:34 22° NNE 21:07:24 10° ENE visible
06 Jun 3.4 22:46:28 10° NNW 22:54:27 58° NE 22:59:10 24° ESE visible
